Location: Newark
(55.7816°N, 8.2389°E)
Time: 22:21:03
(UTC+00:00)

LilacSat-2 - Pass Details

Date: 28 February 2020
Orbit: 514 x 534 km, 97.5° (Epoch: 06 April)

Event Time Altitude Azimuth Distance (km) Brightness Sun altitude
Rises 04:52:54 0° 20° (NNE) 2,661 ? -13.3°
Reaches altitude 10° 04:55:09 10° 30° (NNE) 1,770 ? -13.0°
Maximum altitude 04:58:39 33° 96° (E) 891 ? -12.5°
Drops below altitude 10° 05:02:08 10° 162° (SSE) 1,767 ? -12.0°
Sets 05:04:23 0° 172° (S) 2,654 ? -11.7°
